Location: Unspecified
(0.0000°N, 0.0000°E)
Time: 08:28:27
(UTC+01:00)

SWIFT - Visible Passes

Search period start: 06 March 2015 00:00
Search period end: 16 March 2015 00:00
Orbit: 555 x 572 km, 20.6° (Epoch: 04 March)

Date Brightness Start Highest point End Pass type
(mag) Time Alt. Az. Time Alt. Az. Time Alt. Az.
14 Mar 4.6 19:48:35 10° S 19:50:22 12° SSE 19:52:15 10° SE visible
14 Mar 5.4 21:28:49 10° SW 21:28:55 11° SW 21:28:55 11° SW visible
15 Mar 4.3 19:45:10 10° SSW 19:47:53 17° SSE 19:50:40 10° ESE visible
15 Mar 5.2 21:26:01 10° WSW 21:26:35 14° SW 21:26:35 14° SW visible
